Weather History for KTRK - October, 2013

Change the Weather History Date:

Friday, October 11, 2013

  Actual Average Record
Temperature  
Mean Temperature 40 °F -  
Max Temperature 60 °F 65 °F 80 °F (1971)
Min Temperature 19 °F 30 °F 19 °F (1973)
Degree Days  
Heating Degree Days 26    
Moisture  
Dew Point 27 °F    
Average Humidity 74    
Maximum Humidity 100    
Minimum Humidity 19    
Precipitation  
Precipitation 0.00 in - - ()
Sea Level Pressure  
Sea Level Pressure 30.12 in    
Wind  
Wind Speed 2 mph (WSW)    
Max Wind Speed 14 mph    
Max Gust Speed 20 mph    
Visibility 7 miles    
Events Fog    
Averages and records for this station are not official NWS values.
T = Trace of Precipitation, MM = Missing Value Source: NWS Daily Summary

Daily Weather History Graph

Daily Weather History Graph

Search for Another Location

Airport or City:

Trip Planner

Search our weather history database for the weather conditions in past years. The results will help you decide how hot, cold, wet, or windy it might be!

Date:

Astronomy

Oct. 11, 2013 Rise Set
Actual Time 7:06 AM PDT 6:27 PM PDT
Civil Twilight 6:39 AM PDT 6:53 PM PDT
Nautical Twilight 6:08 AM PDT 7:24 PM PDT
Astronomical Twilight 5:37 AM PDT 7:55 PM PDT
Moon 1:51 PM PDT (10/11) No Moon Set
Length of Visible Light 12h 14m
Length of Day
11h 20m
Waxing Crescent, 48% of the Moon is Illuminated
Oct 11
Waxing Crescent
Oct 11
First Quarter
Oct 18
Full
Oct 26
Last Quarter
Nov 3
New

Hourly Weather History & Observations

Time (PDT) Temp. Windchill Dew Point Humidity Pressure Visibility Wind Dir Wind Speed Gust Speed Precip Events Conditions
12:15 AM 26.6 °F - 24.8 °F 93% 30.11 in 10.0 mi Calm Calm - N/A   Clear
12:35 AM 30.2 °F - 28.4 °F 93% 30.11 in 10.0 mi Calm Calm - N/A   Clear
12:55 AM 28.4 °F 24.6 °F 26.6 °F 93% 30.11 in 10.0 mi ESE 3.5 mph - N/A   Clear
1:15 AM 24.8 °F - 23.0 °F 93% 30.12 in 10.0 mi Calm Calm - N/A   Clear
1:35 AM 24.8 °F 20.5 °F 24.8 °F 100% 30.12 in 1.0 mi South 3.5 mph - N/A   Clear
1:55 AM 26.6 °F - 26.6 °F 100% 30.12 in 0.2 mi Calm Calm - N/A Fog Light Freezing Fog
2:15 AM 26.6 °F - 24.8 °F 93% 30.12 in 0.5 mi Calm Calm - N/A Fog Light Freezing Fog
2:35 AM 26.6 °F - 26.6 °F 100% 30.12 in 3.0 mi Calm Calm - N/A   Clear
2:55 AM 26.6 °F - 24.8 °F 93% 30.13 in 4.0 mi Calm Calm - N/A   Clear
3:15 AM 24.8 °F - 24.8 °F 100% 30.12 in 0.5 mi Calm Calm - N/A Fog Light Freezing Fog
3:35 AM 24.8 °F - 24.8 °F 100% 30.12 in 0.5 mi Calm Calm - N/A Fog Light Freezing Fog
3:55 AM 24.8 °F - 24.8 °F 100% 30.13 in 2.0 mi Calm Calm - N/A   Clear
4:15 AM 24.8 °F 20.5 °F 24.8 °F 100% 30.13 in 1.0 mi South 3.5 mph - N/A   Clear
4:35 AM 23.0 °F - 23.0 °F 100% 30.13 in 0.2 mi Calm Calm - N/A Fog Light Freezing Fog
4:55 AM 24.8 °F - 23.0 °F 93% 30.14 in 0.5 mi Calm Calm - N/A Fog Light Freezing Fog
5:15 AM 24.8 °F - 23.0 °F 93% 30.14 in 0.8 mi Calm Calm - N/A   Mist
5:35 AM 23.0 °F - 23.0 °F 100% 30.14 in 0.2 mi Calm Calm - N/A Fog Light Freezing Fog
5:55 AM 21.2 °F - 19.4 °F 93% 30.14 in 0.2 mi Calm Calm - N/A Fog Light Freezing Fog
6:15 AM 19.4 °F - 19.4 °F 100% 30.14 in 0.2 mi Calm Calm - N/A Fog Light Freezing Fog
6:35 AM 19.4 °F - 17.6 °F 93% 30.15 in 0.5 mi Calm Calm - N/A Fog Light Freezing Fog
6:45 AM 21.2 °F - 19.4 °F 93% 30.15 in 0.2 mi Calm Calm - N/A Fog Light Freezing Fog
7:45 AM 21.2 °F - 19.4 °F 93% 30.17 in 0.2 mi Calm Calm - N/A Fog Light Freezing Fog
8:45 AM 28.4 °F - 26.6 °F 93% 30.17 in 10.0 mi Calm Calm - N/A   Clear
9:50 AM 32.0 °F 28.7 °F 32.0 °F 100% 30.16 in 10.0 mi North 3.5 mph - N/A   Partly Cloudy
10:45 AM 42.8 °F - 30.2 °F 61% 30.15 in 10.0 mi Calm Calm - N/A   Partly Cloudy
11:45 AM 51.8 °F - 28.4 °F 41% 30.14 in 10.0 mi NNE 3.5 mph - N/A   Clear
12:45 PM 55.4 °F - 23.0 °F 29% 30.11 in 10.0 mi Calm Calm - N/A   Clear
1:45 PM 59.0 °F - 19.4 °F 22% 30.09 in 10.0 mi WNW 12.7 mph 17.3 mph N/A   Partly Cloudy
2:55 PM 60.8 °F - 17.6 °F 19% 30.08 in 10.0 mi West 9.2 mph - N/A   Partly Cloudy
3:45 PM 59.0 °F - 23.0 °F 25% 30.08 in 10.0 mi West 11.5 mph 17.3 mph N/A   Partly Cloudy
4:45 PM 55.4 °F - 28.4 °F 36% 30.08 in 10.0 mi West 13.8 mph 19.6 mph N/A   Partly Cloudy
5:45 PM 50.0 °F - 32.0 °F 50% 30.08 in 10.0 mi West 13.8 mph 17.3 mph N/A   Partly Cloudy
5:55 PM 53.6 °F - 32.0 °F 44% 30.08 in 10.0 mi West 12.7 mph - N/A   Clear
6:15 PM 51.8 °F - 32.0 °F 47% 30.08 in 10.0 mi West 11.5 mph - N/A   Clear
6:35 PM 50.0 °F - 32.0 °F 50% 30.09 in 10.0 mi West 11.5 mph - N/A   Clear
6:55 PM 48.2 °F - 32.0 °F 54% 30.09 in 10.0 mi West 12.7 mph - N/A   Clear
7:15 PM 48.2 °F - 32.0 °F 54% 30.10 in 10.0 mi West 11.5 mph - N/A   Clear
7:35 PM 48.2 °F - 32.0 °F 54% 30.10 in 10.0 mi West 5.8 mph - N/A   Clear
7:55 PM 46.4 °F - 32.0 °F 57% 30.10 in 10.0 mi Calm Calm - N/A   Clear
8:15 PM 44.6 °F 43.1 °F 32.0 °F 61% 30.10 in 10.0 mi SSW 3.5 mph - N/A   Clear
8:35 PM 44.6 °F - 32.0 °F 61% 30.10 in 10.0 mi Calm Calm - N/A   Clear
8:55 PM 44.6 °F - 32.0 °F 61% 30.11 in 10.0 mi Calm Calm - N/A   Clear
9:15 PM 44.6 °F - 32.0 °F 61% 30.11 in 10.0 mi Calm Calm - N/A   Clear
9:35 PM 41.0 °F - 32.0 °F 70% 30.11 in 10.0 mi Calm Calm - N/A   Clear
9:55 PM 41.0 °F 38.0 °F 30.2 °F 65% 30.12 in 10.0 mi ESE 4.6 mph - N/A   Clear
10:15 PM 37.4 °F 34.9 °F 28.4 °F 70% 30.12 in 10.0 mi South 3.5 mph - N/A   Clear
10:35 PM 37.4 °F 33.8 °F 28.4 °F 70% 30.12 in 10.0 mi SSE 4.6 mph - N/A   Partly Cloudy
10:55 PM 35.6 °F 32.8 °F 28.4 °F 75% 30.12 in 10.0 mi South 3.5 mph - N/A   Partly Cloudy
11:15 PM 32.0 °F 27.5 °F 26.6 °F 80% 30.13 in 10.0 mi SW 4.6 mph - N/A   Clear
11:35 PM 33.8 °F 30.8 °F 28.4 °F 81% 30.12 in 10.0 mi South 3.5 mph - N/A   Clear
11:55 PM 32.0 °F - 28.4 °F 87% 30.12 in 10.0 mi Calm Calm - N/A   Clear